Mount Pocono, PA

4:18 PM EDT on October 01, 2016 (GMT -0400)
Pocono Mountains Municipal

Weather History for KMPO - February, 2014

Change the Weather History Date:

Tuesday, February 18, 2014

  Actual Average Record
Temperature  
Mean Temperature 23 °F 26 °F  
Max Temperature 30 °F 35 °F 63 °F (1981)
Min Temperature 15 °F 18 °F -14 °F (1979)
Degree Days  
Heating Degree Days 42 38  
Month to date heating degree days 834 719  
Since 1 July heating degree days 5012 4750  
Cooling Degree Days 0 0  
Month to date cooling degree days 0 0  
Year to date cooling degree days 0 0  
Moisture  
Dew Point 18 °F    
Average Humidity 69    
Maximum Humidity 96    
Minimum Humidity 41    
Precipitation  
Precipitation 0.06 in 0.10 in 1.33 in (1998)
Month to date precipitation 2.46 1.47  
Year to date precipitation 5.81 4.32  
Sea Level Pressure  
Sea Level Pressure 29.98 in    
Wind  
Wind Speed 11 mph (SSE)    
Max Wind Speed 22 mph    
Max Gust Speed 32 mph    
Visibility 4 miles    
Events Fog , Snow    
T = Trace of Precipitation, MM = Missing Value Source: NWS Daily Summary

Daily Weather History Graph

Daily Weather History Graph

Search for Another Location

Airport or City:

Trip Planner

Search our weather history database for the weather conditions in past years. The results will help you decide how hot, cold, wet, or windy it might be!

Date:

Astronomy

Feb. 18, 2014 Rise Set
Actual Time 6:52 AM EST 5:39 PM EST
Civil Twilight 6:23 AM EST 6:07 PM EST
Nautical Twilight 5:51 AM EST 6:39 PM EST
Astronomical Twilight 5:19 AM EST 7:11 PM EST
Moon 9:33 PM EST (2/18) 8:20 AM EST (2/18)
Length of Visible Light 11h 43m
Length of Day
10h 47m
Waning Gibbous, 87% of the Moon is Illuminated
Feb 18
Waning Gibbous
Feb 22
Last Quarter
Mar 1
New
Mar 8
First Quarter
Mar 16
Full

Hourly Weather History & Observations

Time (EST) Temp. Windchill Dew Point Humidity Pressure Visibility Wind Dir Wind Speed Gust Speed Precip Events Conditions
12:53 AM 19.0 °F 7.5 °F 3.0 °F 50% 30.18 in 10.0 mi SE 10.4 mph - N/A   Overcast
1:53 AM 19.9 °F 5.2 °F 3.0 °F 48% 30.18 in 10.0 mi SSE 17.3 mph - N/A   Mostly Cloudy
2:53 AM 19.9 °F 5.2 °F 6.1 °F 55% 30.15 in 10.0 mi SE 17.3 mph 24.2 mph N/A   Overcast
3:45 AM 19.9 °F 5.7 °F 10.9 °F 68% 30.04 in 1.8 mi SSE 16.1 mph 31.1 mph 0.00 in Snow Light Snow
3:53 AM 19.0 °F 4.0 °F 12.9 °F 77% 30.14 in 0.8 mi South 17.3 mph - 0.00 in Snow Light Snow
4:10 AM 19.0 °F 4.5 °F 15.1 °F 85% 30.04 in 1.0 mi South 16.1 mph 24.2 mph 0.00 in Snow Light Snow
4:18 AM 19.0 °F 7.5 °F 15.1 °F 85% 30.03 in 0.8 mi SSE 10.4 mph - 0.00 in Snow Light Snow
4:46 AM 19.0 °F 8.2 °F 15.1 °F 85% 30.02 in 1.0 mi SE 9.2 mph - 0.01 in Snow Light Snow
4:53 AM 19.0 °F 9.0 °F 15.1 °F 85% 30.10 in 0.8 mi SE 8.1 mph - 0.01 in Snow Light Snow
5:04 AM 18.0 °F 8.7 °F 15.1 °F 88% 30.02 in 1.0 mi SE 6.9 mph - 0.00 in Snow Light Snow
5:22 AM 18.0 °F 5.4 °F 15.1 °F 88% 30.01 in 1.2 mi ESE 11.5 mph - 0.00 in Snow Light Snow
5:30 AM 18.0 °F 6.9 °F 15.1 °F 88% 30.01 in 3.0 mi SE 9.2 mph - 0.00 in Snow Light Snow
5:36 AM 18.0 °F 5.4 °F 16.0 °F 92% 30.01 in 1.8 mi SE 11.5 mph - 0.00 in Snow Light Snow
5:53 AM 18.0 °F 6.9 °F 16.0 °F 92% 30.11 in 1.2 mi SE 9.2 mph - 0.00 in Snow Light Snow
6:03 AM 18.0 °F 4.2 °F 15.1 °F 88% 30.01 in 0.8 mi ESE 13.8 mph - 0.01 in Snow Light Snow
6:12 AM 18.0 °F 7.7 °F 15.1 °F 88% 30.00 in 1.0 mi ESE 8.1 mph - 0.01 in Snow Light Snow
6:21 AM 18.0 °F 6.9 °F 15.1 °F 88% 29.98 in 3.0 mi ESE 9.2 mph - 0.01 in Snow Light Snow
6:36 AM 18.0 °F 5.4 °F 15.1 °F 88% 29.98 in 8.0 mi SE 11.5 mph - 0.01 in   Overcast
6:49 AM 17.6 °F 5.7 °F 15.8 °F 93% 29.98 in 6.0 mi ESE 10.4 mph - 0.01 in   Overcast
6:53 AM 18.0 °F 6.9 °F 16.0 °F 92% 30.08 in 5.0 mi ESE 9.2 mph - 0.01 in   Overcast
7:05 AM 19.0 °F 8.2 °F 17.1 °F 92% 29.98 in 1.8 mi ESE 9.2 mph - N/A   Overcast
7:22 AM 19.0 °F 7.5 °F 17.1 °F 92% 29.98 in 0.5 mi ESE 10.4 mph - N/A Fog Light Freezing Fog
7:53 AM 19.9 °F 10.1 °F 18.0 °F 92% 30.05 in 0.5 mi ESE 8.1 mph - 0.00 in Fog , Snow Light Snow
8:06 AM 19.9 °F 11.1 °F 17.1 °F 89% 29.96 in 2.0 mi ESE 6.9 mph - 0.00 in Snow Light Snow
8:14 AM 19.9 °F 10.1 °F 17.1 °F 89% 29.96 in 4.0 mi East 8.1 mph - 0.00 in   Overcast
8:32 AM 19.9 °F 10.1 °F 18.0 °F 92% 29.94 in 2.0 mi ESE 8.1 mph - 0.00 in   Overcast
8:42 AM 19.9 °F 10.1 °F 18.0 °F 92% 29.93 in 0.8 mi ESE 8.1 mph - 0.00 in Snow Light Snow
8:53 AM 21.0 °F 10.6 °F 18.0 °F 88% 30.02 in 0.8 mi ESE 9.2 mph - 0.00 in Snow Light Snow
9:37 AM 21.9 °F 12.5 °F 19.0 °F 89% 29.91 in 0.2 mi ESE 8.1 mph - 0.01 in Fog , Snow Snow
9:48 AM 21.2 °F 11.7 °F 19.4 °F 93% 29.91 in 0.2 mi SE 8.1 mph - 0.01 in Fog , Snow Snow
9:53 AM 21.9 °F 13.4 °F 19.9 °F 92% 30.00 in 0.2 mi SE 6.9 mph - 0.01 in Fog , Snow Snow
10:26 AM 23.0 °F 13.9 °F 19.9 °F 88% 29.90 in 0.5 mi SE 8.1 mph - 0.02 in Fog , Snow Snow
10:37 AM 23.0 °F 14.7 °F 19.9 °F 88% 29.90 in 0.8 mi SE 6.9 mph - 0.02 in Snow Light Snow
10:42 AM 23.0 °F 14.7 °F 19.9 °F 88% 29.90 in 1.0 mi SE 6.9 mph - 0.02 in Snow Light Snow
10:53 AM 23.0 °F 13.9 °F 21.0 °F 92% 29.99 in 2.0 mi SE 8.1 mph - 0.02 in Snow Light Snow
11:03 AM 24.1 °F 15.2 °F 21.9 °F 91% 29.90 in 4.0 mi SSE 8.1 mph - 0.00 in   Overcast
11:13 AM 24.1 °F 16.0 °F 21.9 °F 91% 29.90 in 4.0 mi SSE 6.9 mph - 0.00 in Snow Light Snow
11:24 AM 25.0 °F 16.3 °F 21.9 °F 88% 29.89 in 2.5 mi SSE 8.1 mph - 0.00 in Snow Light Snow
11:53 AM 26.1 °F 20.5 °F 23.0 °F 88% 29.96 in 7.0 mi South 4.6 mph - 0.00 in   Overcast
12:05 PM 26.1 °F 17.6 °F 24.1 °F 92% 29.88 in 7.0 mi SSW 8.1 mph - N/A   Overcast
12:17 PM 27.0 °F 18.7 °F 24.1 °F 89% 29.88 in 7.0 mi SW 8.1 mph - N/A   Overcast
12:53 PM 28.0 °F 19.3 °F 24.1 °F 85% 29.96 in 6.0 mi SW 9.2 mph - N/A   Overcast
1:15 PM 30.0 °F 20.5 °F 24.1 °F 79% 29.86 in 4.0 mi WSW 11.5 mph - 0.01 in Snow Light Snow
1:48 PM 28.4 °F 15.1 °F 23.0 °F 80% 29.86 in 1.8 mi West 20.7 mph 26.5 mph 0.01 in Snow Light Snow
1:53 PM 28.9 °F 17.3 °F 23.0 °F 78% 29.94 in 1.2 mi West 16.1 mph 26.5 mph 0.01 in Snow Light Snow
2:21 PM 28.9 °F 19.8 °F 24.1 °F 82% 29.86 in 0.8 mi West 10.4 mph - 0.00 in Snow Light Snow
2:30 PM 28.9 °F 19.2 °F 24.1 °F 82% 29.87 in 1.0 mi West 11.5 mph - 0.00 in Snow Light Snow
2:53 PM 28.9 °F 17.7 °F 23.0 °F 78% 29.96 in 2.5 mi West 15.0 mph 26.5 mph 0.00 in Snow Light Snow
2:57 PM 28.9 °F 18.6 °F 23.0 °F 78% 29.89 in 1.8 mi West 12.7 mph 23.0 mph 0.00 in Snow Light Snow
3:12 PM 28.9 °F 17.7 °F 24.1 °F 82% 29.89 in 0.8 mi West 15.0 mph 20.7 mph 0.00 in Snow Light Snow
3:19 PM 28.9 °F 17.7 °F 23.0 °F 78% 29.89 in 1.5 mi West 15.0 mph 20.7 mph 0.00 in Snow Light Snow
3:23 PM 28.9 °F 19.2 °F 23.0 °F 78% 29.89 in 3.0 mi West 11.5 mph 20.7 mph 0.00 in Snow Light Snow
3:53 PM 30.0 °F 17.9 °F 21.0 °F 69% 29.97 in 4.0 mi West 18.4 mph 25.3 mph 0.00 in   Haze
4:53 PM 30.0 °F 17.5 °F 18.0 °F 61% 30.00 in 7.0 mi West 19.6 mph 29.9 mph N/A   Partly Cloudy
5:53 PM 28.0 °F 16.1 °F 17.1 °F 63% 30.03 in 10.0 mi WNW 16.1 mph - N/A   Clear
6:53 PM 27.0 °F 15.2 °F 17.1 °F 66% 30.05 in 10.0 mi WNW 15.0 mph - N/A   Clear
7:53 PM 26.1 °F 14.5 °F 17.1 °F 69% 30.07 in 10.0 mi WNW 13.8 mph - N/A   Clear
8:53 PM 24.1 °F 16.0 °F 16.0 °F 71% 30.06 in 10.0 mi WNW 6.9 mph - N/A   Clear
9:53 PM 23.0 °F 17.0 °F 16.0 °F 74% 30.07 in 10.0 mi WNW 4.6 mph - N/A   Clear
10:53 PM 15.1 °F 9.4 °F 12.9 °F 91% 30.06 in 8.0 mi West 3.5 mph - N/A   Clear
11:53 PM 18.0 °F - 14.0 °F 84% 30.06 in 9.0 mi Calm Calm - N/A   Clear